Main page
Satellite images Climate Cyclones Lightning AirportsFAQ Languages Contact Newsletter About
Weather : Europe Africa North America South America Asia Australia-Oceania Others

, Hua Hin, Hua Hin Airport

48475

latitude: , longitude: Thailand, elevation: 12-35N m


METAR: VTPH 200100Z VRB02KT 9999 FEW032 30/23 Q1008 NOSIG